Location: Trois-Rivi�res
(46.3500°N, 72.5500°W)
Time: 23:49:12
(UTC-05:00)

Vanguard 1 Rocket - Visible Passes

Search period start: 11 December 2017 00:00
Search period end: 21 December 2017 00:00
Orbit: 656 x 4222 km, 34.3° (Epoch: 11 December)

Date Brightness Start Highest point End Pass type
(mag) Time Alt. Az. Time Alt. Az. Time Alt. Az.
11 Dec 10.1 17:25:14 10° SW 17:35:53 44° SSE 17:51:18 16° E visible
11 Dec 10.2 19:49:06 10° WSW 20:03:53 57° S 20:08:34 51° SSE visible
11 Dec 10.8 22:15:33 10° W 22:25:51 36° WSW 22:25:51 36° WSW visible
12 Dec11.801:25:36S01:25:36S00:43:08Wvisible
12 Dec 10.2 16:15:52 10° SSW 16:24:28 33° SE 16:39:06 10° E visible
12 Dec 10.1 18:38:20 10° WSW 18:50:46 54° S 19:01:20 33° ESE visible
12 Dec 10.4 21:03:32 10° W 21:18:37 51° SSW 21:18:37 51° SSW visible
12 Dec 11.4 23:31:55 10° W 23:35:54 18° W 23:35:54 18° W visible
13 Dec 10.0 17:28:07 10° SW 17:38:26 47° SSE 17:54:09 16° E visible
13 Dec 10.2 19:52:12 10° WSW 20:06:29 55° S 20:11:26 48° SSE visible
13 Dec 10.9 22:18:48 10° W 22:28:43 33° WSW 22:28:43 33° WSW visible
14 Dec 10.0 16:18:31 10° SSW 16:26:56 36° SSE 16:41:46 10° E visible
14 Dec 10.0 18:41:25 10° WSW 18:53:27 54° S 19:04:17 31° ESE visible
14 Dec 10.5 21:06:43 10° W 21:21:35 47° SSW 21:21:35 47° SSW visible
14 Dec 11.5 23:35:45 10° W 23:38:52 15° W 23:38:52 15° W visible
15 Dec 9.9 17:31:07 10° SW 17:41:07 49° SSE 17:57:11 14° ESE visible
15 Dec 10.3 19:55:21 10° W 20:09:07 51° S 20:14:29 45° SSE visible
15 Dec 11.0 22:22:14 10° W 22:31:47 30° WSW 22:31:47 30° WSW visible
16 Dec 9.9 16:21:21 10° SW 16:29:32 39° SSE 16:44:21 10° E visible
16 Dec 10.0 18:44:33 10° WSW 18:56:11 53° S 19:07:28 29° ESE visible
16 Dec 10.6 21:10:01 10° W 21:24:46 42° SSW 21:24:46 42° SSW visible
16 Dec 11.5 23:40:11 10° W 23:42:04 13° WSW 23:42:04 13° WSW visible
17 Dec 9.9 17:34:12 10° WSW 17:43:53 50° S 18:00:31 13° ESE visible
17 Dec 10.3 19:58:35 10° W 20:11:47 47° SSW 20:17:50 40° SSE visible
17 Dec 11.1 22:25:56 10° W 22:35:09 26° SW 22:35:09 26° SW visible
18 Dec 9.8 16:24:18 10° SW 16:32:16 42° SSE 16:46:53 10° E visible
18 Dec 10.1 18:47:45 10° WSW 18:58:57 50° S 19:11:00 25° SE visible
18 Dec 10.7 21:13:26 10° W 21:27:33 36° SSW 21:28:19 36° SSW visible
19 Dec 9.8 17:37:22 10° WSW 17:46:42 49° S 18:04:16 10° ESE visible
19 Dec 10.4 20:01:55 10° W 20:14:29 42° SSW 20:21:36 34° SSE visible
19 Dec 11.2 22:30:07 10° W 22:38:57 22° SW 22:38:57 22° SW visible
20 Dec 9.7 16:27:22 10° SW 16:35:05 43° SSE 16:49:22 10° ESE visible
20 Dec 10.1 18:51:02 10° WSW 19:01:47 46° S 19:15:02 21° SE visible
20 Dec 10.9 21:17:07 10° W 21:30:07 30° SSW 21:32:23 30° SSW visible
